Theta_e
314 314 314 315 315 315 314 313 314 314 314 315 315 315 315 315 315 307 301 306 312 321 324 310 308 304 302 299 303 302 292 291 294 296 299 306 303 308 310 308 312 316 315 318 318
314 313 313 313 313 313 313 313 314 313 314 314 315 315 314 315 307 303 311 322 325 329 313 306 301 299 295 298 298 295 289 293 298 300 300 303 303 304 305 306 308 312 316 318 317
313 313 313 312 312 312 312 312 313 313 314 314 314 314 314 313 302 305 328 323 330 330 307 304 303 305 295 294 296 294 293 297 299 302 304 303 304 305 303 302 306 309 313 314 312
312 312 312 312 312 312 312 313 314 314 313 313 313 313 314 308 290 308 333 327 329 317 307 308 305 297 291 291 294 291 297 298 300 303 303 302 305 304 305 306 312 314 315 312 311
311 311 311 312 312 312 313 313 313 313 313 312 312 313 308 301 301 311 333 331 321 310 308 306 302 296 292 293 293 291 295 298 301 302 302 304 303 304 305 309 313 314 315 313 310
311 311 311 311 312 312 312 312 312 311 312 312 313 314 304 294 306 317 320 318 311 306 303 304 301 299 296 294 292 296 296 297 298 298 298 299 301 301 304 309 314 314 312 313 311
312 311 311 312 312 312 312 312 311 312 313 313 313 311 303 298 311 316 313 308 308 308 305 307 303 299 296 294 296 297 292 295 295 295 297 299 296 299 304 307 306 307 306 310 311
312 311 311 311 312 312 312 313 313 313 314 313 313 308 296 310 309 307 310 309 309 309 307 307 304 298 294 296 296 292 291 285 292 296 298 296 291 299 302 303 304 305 306 308 310
312 311 311 311 311 312 313 313 313 314 317 314 306 302 297 316 311 312 309 308 309 309 307 309 301 296 296 289 286 287 283 286 290 295 295 294 293 299 301 301 301 301 303 305 304
311 311 311 311 312 312 312 313 312 312 314 313 310 299 305 307 305 308 307 310 306 304 302 300 295 291 288 286 280 284 285 288 288 295 294 292 293 297 300 300 301 299 299 302 304
310 311 310 311 311 312 308 305 302 303 305 301 304 303 307 312 308 304 307 307 305 299 291 294 288 285 289 291 292 291 289 288 292 295 293 292 292 295 298 298 297 296 298 300 302
310 309 310 310 310 310 304 302 307 301 295 307 308 306 311 312 305 305 309 300 298 292 294 290 286 293 295 295 294 292 290 289 293 296 293 292 291 294 297 296 297 298 299 299 299
310 310 310 310 310 306 303 308 314 308 296 301 306 306 307 309 304 302 305 301 296 292 292 288 292 298 296 293 292 292 289 289 289 294 293 291 289 291 296 298 298 298 299 300 301
310 309 309 309 304 304 304 311 308 307 290 297 302 304 305 303 299 307 307 301 296 293 292 290 295 294 293 293 294 287 293 293 292 288 283 292 280 287 292 294 296 297 297 298 300
309 309 309 307 298 300 308 310 310 305 283 303 300 306 303 299 301 302 307 300 294 294 293 291 292 292 291 293 296 291 295 293 293 287 283 286 281 285 291 291 293 296 297 298 300
309 309 308 305 301 305 309 308 304 292 285 300 300 298 296 298 300 302 301 302 301 294 293 292 296 295 294 299 298 298 294 291 288 284 279 284 284 285 287 290 292 297 299 300 299
308 307 305 305 299 305 305 303 289 285 303 298 299 299 295 294 297 297 296 293 290 285 286 294 293 298 301 295 297 295 287 279 278 276 279 288 286 287 292 297 298 299 301 300 300
306 306 305 305 301 304 304 296 284 294 297 302 298 298 294 295 295 296 294 291 295 295 289 287 284 296 300 297 294 293 292 283 275 275 280 289 282 288 298 300 301 298 298 297 298
305 301 304 307 305 307 298 287 288 296 300 296 296 292 292 294 294 294 291 292 296 297 290 289 288 299 299 300 298 293 287 294 286 287 280 282 287 294 297 299 299 300 298 295 297
298 300 305 312 310 303 293 290 294 300 300 299 290 294 288 290 291 290 290 297 296 298 296 292 285 294 296 299 299 295 295 284 285 278 276 280 283 285 293 295 299 299 300 300 300
298 298 310 315 309 298 288 291 297 302 299 296 292 291 291 290 291 289 291 295 297 296 296 291 287 288 292 290 289 290 289 287 286 285 279 277 280 291 293 296 297 299 301 298 300
294 290 308 309 296 294 290 297 297 297 299 297 296 294 292 292 290 289 290 293 299 297 290 291 287 282 287 293 296 294 291 288 281 279 285 281 281 294 294 298 300 299 301 302 303
294 293 307 306 291 290 294 296 298 296 296 296 295 296 294 289 286 292 292 297 299 296 292 292 283 277 280 286 292 288 291 292 288 287 281 281 284 297 298 297 299 300 302 304 304
291 292 298 299 298 292 292 294 294 301 297 295 294 294 291 289 290 287 290 295 298 297 302 296 285 282 277 282 284 284 288 290 287 280 282 285 287 292 295 295 298 299 301 302 304
294 293 292 288 291 292 294 294 292 291 295 294 292 293 290 285 287 286 290 291 294 301 296 289 283 285 287 289 289 288 287 288 287 286 282 286 286 290 295 295 295 298 301 301 302
295 289 292 289 293 294 295 293 292 293 291 291 289 292 290 285 287 285 288 287 287 289 286 289 280 286 285 289 288 286 288 289 290 290 288 290 288 296 296 297 296 295 296 296 300
296 297 292 290 291 292 293 293 293 294 293 293 292 290 289 291 293 291 291 290 290 286 285 284 282 280 279 286 286 281 289 290 291 293 291 286 290 294 292 294 293 293 295 295 297
Wind_Speed
18 18 17 16 15 15 16 16 15 15 15 16 17 16 16 16 16 4 8 14 10 15 4 5 4 4 2 4 5 3 1 9 9 10 11 20 5 9 6 4 7 5 5 9 9
19 18 17 16 16 16 17 17 17 16 15 15 15 15 15 15 5 9 14 17 18 11 5 6 5 2 3 6 4 6 5 7 5 6 8 15 6 7 8 16 5 3 7 6 2
19 19 18 18 17 17 17 17 17 16 15 14 14 13 13 12 5 8 2 20 12 9 4 2 4 2 5 3 6 6 10 4 8 10 15 19 24 5 6 10 10 5 6 4 4
19 19 19 18 17 17 17 16 16 15 14 13 11 11 12 1 1 4 5 16 10 6 4 3 1 3 4 5 7 7 7 13 14 15 17 16 15 13 6 10 10 11 10 9 8
20 20 19 18 18 18 17 16 15 14 13 12 10 8 4 1 11 5 7 11 6 5 6 4 2 2 4 5 3 5 7 12 16 17 19 18 22 17 15 9 11 9 6 8 9
21 21 20 19 18 17 16 15 14 13 12 10 9 7 2 4 7 7 8 6 6 5 4 6 6 8 6 5 3 5 5 9 10 12 9 15 20 5 8 7 5 7 7 7 9
20 21 20 19 18 17 15 14 13 13 12 9 6 4 3 15 2 5 8 7 6 6 4 4 6 4 4 7 1 6 7 9 5 5 6 3 9 19 7 6 7 7 6 8 7
21 20 21 20 18 16 15 14 13 13 11 6 4 2 9 6 3 4 6 8 8 7 8 10 2 1 2 3 9 5 4 4 6 3 6 5 16 12 5 6 10 9 8 8 10
21 20 21 20 18 16 17 16 15 11 7 4 4 2 11 11 5 11 11 12 12 8 7 7 2 2 5 3 6 6 5 8 10 6 4 5 17 8 10 8 10 8 8 9 9
21 20 20 19 18 16 17 17 4 4 3 6 6 3 7 4 5 5 7 11 4 3 2 1 4 1 4 5 5 6 5 7 7 13 4 10 17 14 19 11 16 9 8 9 9
23 21 20 19 18 12 8 4 3 1 3 9 7 7 12 9 3 5 6 2 2 4 1 6 2 6 13 11 12 9 12 15 16 10 5 7 10 11 16 12 11 5 6 6 8
24 23 22 21 18 13 1 1 7 2 10 16 18 15 17 7 7 6 6 5 3 5 3 5 8 15 10 13 12 14 17 18 14 9 4 8 13 8 8 7 8 9 7 7 5
22 23 23 23 24 3 4 7 8 5 4 10 9 8 9 7 11 8 9 6 7 6 7 8 12 11 12 16 17 18 12 6 7 6 5 3 9 5 5 6 4 6 6 6 10
23 22 21 25 2 3 5 6 7 5 4 8 6 7 5 8 5 11 12 9 6 13 9 8 11 10 10 7 9 6 7 6 7 3 6 4 7 4 5 7 8 8 8 9 10
25 22 20 8 5 2 7 9 10 5 3 4 4 4 7 8 3 3 8 5 12 11 7 14 7 11 12 10 11 9 9 4 1 2 1 1 1 6 6 13 11 11 10 11 12
25 20 17 1 3 9 8 11 4 5 4 3 4 4 5 5 5 4 7 5 6 6 6 10 4 5 3 13 7 8 6 0 2 3 3 2 4 15 7 6 6 13 17 14 9
29 26 6 2 6 2 4 4 5 3 4 9 4 2 6 5 5 5 6 8 9 3 4 8 7 9 10 7 4 9 6 5 7 3 12 5 2 15 5 12 16 21 24 17 10
30 24 4 6 4 3 4 5 2 4 4 11 6 7 3 8 7 9 7 2 2 3 3 2 7 6 5 1 6 4 8 4 4 3 10 3 8 15 6 8 14 14 12 8 8
26 4 3 5 6 2 5 3 6 2 9 5 3 3 4 7 1 6 5 3 4 2 4 6 8 7 11 12 7 0 6 13 6 13 5 5 8 13 18 10 5 13 14 5 6
7 4 5 3 7 5 5 4 5 3 13 6 1 1 3 6 5 5 3 2 3 3 2 4 5 7 4 6 6 4 12 2 2 6 5 5 6 9 5 6 8 8 12 15 12
4 5 4 8 5 5 3 6 5 10 9 5 4 3 3 3 3 3 4 1 4 3 6 3 3 5 5 3 4 1 2 4 5 2 3 3 6 3 4 6 7 4 6 10 10
3 4 2 5 1 1 2 5 8 9 11 5 2 2 2 0 2 3 4 3 3 2 3 1 4 3 8 8 5 4 4 1 1 3 2 2 7 4 4 2 3 7 4 6 6
6 4 6 4 2 4 6 8 4 8 8 5 3 4 3 3 4 3 4 2 4 4 7 5 1 4 9 6 1 2 6 6 1 3 6 2 5 6 7 7 9 7 16 14 11
3 4 5 4 1 3 6 7 11 11 6 5 3 2 4 3 3 4 4 3 2 4 7 6 3 6 5 6 5 6 6 10 7 4 4 7 12 15 12 8 8 7 6 7 6
0 3 2 4 5 10 8 6 11 11 4 3 3 4 1 2 3 3 3 5 7 4 4 5 5 4 6 9 12 13 14 13 10 8 7 11 9 2 5 6 7 7 5 9 8
3 4 5 4 5 6 3 6 10 15 9 4 4 3 2 1 3 3 0 1 4 1 2 0 4 2 4 12 11 13 14 12 14 10 14 10 12 5 7 7 8 9 10 10 11
3 3 2 5 5 1 2 5 14 16 10 10 7 5 4 4 5 7 8 6 7 4 2 2 4 1 5 5 13 5 8 7 6 7 2 3 3 3 5 9 8 7 12 13 11
Wind_Direction
336 334 329 325 322 319 318 316 315 314 314 315 317 319 321 320 314 266 232 220 196 238 287 316 291 243 190 226 211 149 191 233 225 224 253 290 298 292 262 315 310 178 143 180 189
333 329 326 323 319 317 315 313 313 312 311 313 317 321 323 326 289 244 235 212 220 257 183 211 258 259 218 213 222 159 200 235 221 236 247 268 237 296 327 302 268 16 34 59 134
333 329 326 323 320 316 312 309 308 308 308 312 317 321 323 328 307 253 219 208 215 191 250 231 230 168 217 213 220 209 238 239 257 250 252 262 277 258 282 278 255 260 163 108 91
333 330 327 323 319 315 312 310 308 308 309 311 316 321 313 247 269 297 0 183 197 178 222 213 292 200 213 214 227 240 255 232 253 249 258 261 273 266 217 246 241 204 197 156 131
337 333 329 325 320 317 313 311 308 308 308 310 311 320 358 236 251 250 149 154 158 187 210 174 251 192 237 247 266 189 240 242 240 248 250 256 263 259 249 240 247 251 156 160 165
339 337 332 327 323 319 315 312 309 306 304 303 302 309 177 267 246 175 154 157 216 204 194 156 231 226 242 230 173 262 267 258 254 250 255 260 268 221 236 199 226 215 228 188 180
338 336 334 329 325 322 318 312 306 304 301 295 285 268 255 237 357 111 171 204 199 210 247 226 215 45 327 332 33 295 307 313 255 235 232 229 278 252 169 203 193 240 272 271 219
339 336 336 334 330 324 315 307 301 299 299 272 233 245 251 238 246 260 210 286 270 224 214 259 289 194 83 301 346 340 336 314 288 299 266 159 262 268 244 211 236 205 228 215 234
340 337 336 334 332 323 313 299 292 288 303 171 166 173 268 303 190 221 183 219 237 250 240 252 119 163 355 27 358 352 259 289 303 243 257 174 273 260 259 227 237 222 218 240 224
340 338 337 334 333 329 313 295 254 319 179 188 264 323 271 267 234 207 183 202 234 285 62 337 42 183 2 85 230 251 277 268 260 282 241 270 269 275 264 224 242 227 230 225 228
340 337 336 332 330 328 344 13 22 55 238 205 213 237 284 301 99 204 199 208 241 66 335 296 112 226 236 219 231 241 256 264 274 274 243 243 273 278 278 215 236 231 226 232 171
336 335 334 329 324 316 259 197 233 171 293 225 237 224 255 264 295 211 156 160 168 223 261 346 262 253 240 255 245 248 251 263 273 251 271 287 287 282 283 221 185 196 230 222 267
331 330 332 328 318 136 197 233 264 26 292 297 214 220 226 182 240 219 162 190 200 216 233 211 249 276 263 261 262 254 241 234 245 280 287 292 288 293 303 298 239 232 223 222 211
326 327 330 327 2 342 254 272 317 165 29 278 195 235 180 175 263 212 191 167 199 220 234 240 253 258 295 289 286 237 236 256 283 356 257 108 273 294 263 288 294 278 281 243 229
319 322 319 318 293 282 246 324 327 60 350 218 180 164 156 157 204 253 189 177 219 220 142 242 267 287 294 277 291 266 264 238 157 234 345 213 163 265 313 282 270 281 265 258 235
317 318 323 55 201 242 312 307 52 53 266 238 130 192 134 239 242 256 191 189 219 216 216 241 235 197 263 319 298 304 268 343 78 119 286 162 174 285 244 249 277 269 266 256 243
324 317 297 256 226 41 328 32 51 156 275 349 3 93 218 246 242 242 225 215 212 214 350 5 321 317 311 317 350 44 40 299 273 334 254 94 338 243 299 290 278 284 268 246 219
319 317 193 214 255 325 26 56 184 254 335 345 14 338 340 38 334 352 10 240 266 110 97 30 327 1 30 10 305 289 162 154 262 222 277 158 231 257 227 295 293 291 270 157 142
316 330 268 254 189 100 66 87 218 261 339 332 355 305 352 358 322 15 339 19 91 63 189 177 243 266 276 265 147 242 224 214 211 237 277 244 291 308 274 222 33 349 8 65 138
323 325 268 214 130 73 77 243 270 314 322 284 148 329 322 313 335 1 313 79 99 133 135 197 281 224 295 306 205 103 312 23 97 187 214 262 251 247 322 295 85 18 2 28 12
359 344 279 114 82 54 175 235 270 314 337 279 226 249 327 23 342 352 294 329 170 176 97 140 145 283 321 243 174 2 322 339 116 166 200 277 255 227 192 79 55 57 329 42 25
8 331 301 8 31 288 248 298 316 327 341 300 98 147 115 171 288 259 236 261 166 142 121 104 149 262 249 271 194 120 133 353 195 212 248 288 273 354 124 239 109 127 348 29 0
330 275 305 106 321 342 315 309 278 330 324 302 7 39 45 27 354 319 354 336 145 148 162 184 216 329 331 3 5 160 191 173 337 117 212 208 250 270 316 325 278 210 192 219 291
340 325 334 29 46 39 336 303 334 320 318 16 11 51 18 355 164 279 314 347 89 184 146 129 156 180 214 244 232 284 237 203 176 165 214 230 268 275 329 341 335 278 234 197 211
116 277 16 330 343 333 342 285 338 340 356 30 322 14 71 285 288 272 342 351 1 131 147 133 198 225 255 272 281 275 269 264 204 214 191 261 258 345 314 317 306 324 299 253 239
329 9 340 288 282 350 348 295 329 334 324 321 359 309 67 251 241 252 332 228 221 329 46 333 259 249 264 270 280 300 295 274 262 257 244 265 274 29 328 329 349 341 339 332 313
331 345 51 287 299 353 261 309 318 314 300 319 315 306 287 239 227 225 208 204 211 203 246 205 170 30 274 306 306 311 334 5 20 54 317 257 282 326 310 317 310 297 298 289 268